Location: Clifton Park
(41.4873°N, 81.8024°W)
Time: 19:34:45
(UTC+00:00)

SL-8 Rocket - Pass Details

Date: 21 January 2020
Orbit: 956 x 991 km, 82.9° (Epoch: 28 February)

Event Time Altitude Azimuth Distance (km) Brightness Sun altitude
Rises 00:19:10 0° 191° (SSW) 3,690 7.3 -20.6°
Reaches altitude 10° 00:21:42 10° 194° (SSW) 2,744 6.6 -21.1°
Maximum altitude 00:28:00 73° 278° (W) 1,035 4.2 -22.3°
Drops below altitude 10° 00:34:18 10° 4° (N) 2,748 6.2 -23.4°
Sets 00:36:50 0° 6° (N) 3,695 6.9 -23.9°
